Welcome to Northern Hawkes Bay. New Zealand.
PWS Header
      nz Flag



Hit Counter


W3C Valid W3C Valid logo


    Wairoa

Select any of the Stations below to visit their websites.










Historic Data from Weather Underground
Select the location of interest below. Wairoa is the default. Please have patience, this Data is slow to load in.
Northern Hawkes Bay Historical Data
Daily Summary for January 20, 2017 Units:  Metric    English   Both
« Previous Day
Next Day »
Daily Weekly Monthly Yearly Custom
  High: Low: Average:
Temperature: 18.7 °C 10.3 °C 14.8 °C
Dew Point: 11.3 °C 6.5 °C 8.5 °C
Humidity: 91% 49% 67%
Wind Speed: 29.4km/h 0.0km/h 8.9km/h
Wind Gust: 39.3km/h - -
Wind- - WSW
Pressure: 1013.8 hPa 996.2 hPa -
Precipitation: 0.3 mm    
Historical Graphs
 
 
Tabular Data for January 20, 2017
Time Temperature Dew Point Pressure Wind Wind Speed Wind Gust Humidity Rainfall Rate (Hourly) solar
00:03 15.8 °C 7.1 °C 996.2 hPa NNW 13.4 km/h 18.3 km/h 56% 0.0 mm 0 W/m2
00:08 16.0 °C 6.9 °C 996.2 hPa NW 3.5 km/h 19.5 km/h 55% 0.0 mm 0 W/m2
00:13 15.8 °C 7.1 °C 996.5 hPa NW 5.0 km/h 19.5 km/h 56% 0.0 mm 0 W/m2
00:18 15.5 °C 7.0 °C 996.5 hPa NW 3.5 km/h 7.2 km/h 57% 0.0 mm 0 W/m2
00:23 15.2 °C 7.0 °C 996.2 hPa NNW 6.1 km/h 8.7 km/h 58% 0.0 mm 0 W/m2
00:28 15.1 °C 7.2 °C 996.2 hPa NNW 5.0 km/h 8.7 km/h 59% 0.0 mm 0 W/m2
00:33 15.0 °C 7.3 °C 996.2 hPa NW 5.0 km/h 8.7 km/h 60% 0.0 mm 0 W/m2
00:38 15.0 °C 7.3 °C 996.2 hPa NNW 3.5 km/h 8.7 km/h 60% 0.0 mm 0 W/m2
00:43 15.0 °C 7.3 °C 996.2 hPa NW 5.0 km/h 9.7 km/h 60% 0.0 mm 0 W/m2
00:48 15.1 °C 7.2 °C 996.2 hPa NW 3.5 km/h 9.7 km/h 59% 0.0 mm 0 W/m2
00:53 15.1 °C 7.2 °C 996.5 hPa NW 2.6 km/h 9.7 km/h 59% 0.0 mm 0 W/m2
00:58 15.0 °C 7.1 °C 996.2 hPa NNW 1.1 km/h 7.2 km/h 59% 0.0 mm 0 W/m2
01:03 14.8 °C 7.3 °C 996.5 hPa North 3.5 km/h 6.1 km/h 61% 0.0 mm 0 W/m2
01:08 14.7 °C 7.5 °C 996.5 hPa NNW 6.1 km/h 8.7 km/h 62% 0.0 mm 0 W/m2
01:13 14.6 °C 7.7 °C 996.5 hPa NNW 5.0 km/h 9.7 km/h 63% 0.0 mm 0 W/m2
01:18 14.6 °C 7.7 °C 996.5 hPa North 7.2 km/h 11.1 km/h 63% 0.0 mm 0 W/m2
01:23 14.7 °C 7.7 °C 996.5 hPa North 7.2 km/h 12.2 km/h 63% 0.0 mm 0 W/m2
01:28 14.8 °C 7.6 °C 996.5 hPa North 11.1 km/h 14.8 km/h 62% 0.0 mm 0 W/m2
01:33 15.1 °C 7.4 °C 996.5 hPa North 8.7 km/h 14.8 km/h 60% 0.0 mm 0 W/m2
01:38 15.2 °C 7.2 °C 996.8 hPa NW 7.2 km/h 14.8 km/h 59% 0.0 mm 0 W/m2
01:43 15.1 °C 7.2 °C 996.5 hPa NW 8.7 km/h 14.8 km/h 59% 0.0 mm 0 W/m2
01:48 15.1 °C 7.4 °C 996.8 hPa NNW 11.1 km/h 14.8 km/h 60% 0.0 mm 0 W/m2
01:53 15.0 °C 7.3 °C 996.8 hPa NNW 8.7 km/h 14.8 km/h 60% 0.0 mm 0 W/m2
01:58 15.0 °C 7.3 °C 996.5 hPa NW 3.5 km/h 12.2 km/h 60% 0.0 mm 0 W/m2
02:03 14.8 °C 7.6 °C 996.5 hPa NW 3.5 km/h 11.1 km/h 62% 0.0 mm 0 W/m2
02:08 14.7 °C 7.7 °C 996.8 hPa NNW 3.5 km/h 9.7 km/h 63% 0.0 mm 0 W/m2
02:13 14.4 °C 7.7 °C 996.8 hPa West 2.6 km/h 7.2 km/h 64% 0.0 mm 0 W/m2
02:18 14.2 °C 7.5 °C 996.8 hPa West 2.6 km/h 7.2 km/h 64% 0.0 mm 0 W/m2
02:23 14.2 °C 7.5 °C 996.8 hPa NW 5.0 km/h 7.2 km/h 64% 0.0 mm 0 W/m2
02:28 14.2 °C 7.5 °C 996.8 hPa NW 5.0 km/h 8.7 km/h 64% 0.0 mm 0 W/m2
02:33 14.3 °C 7.6 °C 996.8 hPa NW 3.5 km/h 8.7 km/h 64% 0.0 mm 0 W/m2
02:38 14.2 °C 7.5 °C 996.8 hPa NW 3.5 km/h 8.7 km/h 64% 0.0 mm 0 W/m2
02:43 14.0 °C 7.6 °C 996.8 hPa NNW 1.1 km/h 6.1 km/h 65% 0.0 mm 0 W/m2
02:49 13.9 °C 7.7 °C 996.8 hPa NNW 2.6 km/h 5.0 km/h 66% 0.0 mm 0 W/m2
02:54 13.8 °C 7.8 °C 996.8 hPa Calm   3.5 km/h 67% 0.0 mm 0 W/m2
02:59 13.6 °C 7.6 °C 996.8 hPa Calm   3.5 km/h 67% 0.0 mm 0 W/m2
03:04 13.5 °C 7.5 °C 996.8 hPa Calm     67% 0.0 mm 0 W/m2
03:10 13.4 °C 7.6 °C 996.8 hPa North 1.1 km/h 3.5 km/h 68% 0.0 mm 0 W/m2
03:16 13.2 °C 7.7 °C 996.8 hPa North 1.1 km/h 3.5 km/h 69% 0.0 mm 0 W/m2
03:21 13.1 °C 7.6 °C 996.8 hPa Calm   2.6 km/h 69% 0.0 mm 0 W/m2
03:26 13.0 °C 7.4 °C 996.8 hPa Calm   2.6 km/h 69% 0.0 mm 0 W/m2
03:31 13.1 °C 7.8 °C 996.8 hPa NW 5.0 km/h 7.2 km/h 70% 0.0 mm 0 W/m2
03:36 13.2 °C 8.3 °C 997.2 hPa NW 6.1 km/h 13.4 km/h 72% 0.0 mm 0 W/m2
03:41 13.6 °C 8.7 °C 996.8 hPa NW 9.7 km/h 17.2 km/h 72% 0.0 mm 0 W/m2
03:46 14.0 °C 8.8 °C 996.8 hPa NW 9.7 km/h 17.2 km/h 71% 0.0 mm 0 W/m2
03:51 14.1 °C 8.9 °C 997.2 hPa NNW 7.2 km/h 15.8 km/h 71% 0.0 mm 0 W/m2
03:56 14.1 °C 8.9 °C 996.8 hPa NNW 11.1 km/h 15.8 km/h 71% 0.0 mm 0 W/m2
04:01 14.0 °C 8.8 °C 996.8 hPa North 9.7 km/h 15.8 km/h 71% 0.0 mm 0 W/m2
04:04 14.0 °C 8.8 °C 996.8 hPa North 6.1 km/h 18.3 km/h 71% 0.0 mm 0 W/m2
04:09 14.1 °C 8.7 °C 996.8 hPa NW 6.1 km/h 18.3 km/h 70% 0.0 mm 0 W/m2
04:14 13.9 °C 8.9 °C 997.2 hPa WNW 3.5 km/h 14.8 km/h 72% 0.0 mm 0 W/m2
04:19 13.8 °C 8.8 °C 997.2 hPa WNW 2.6 km/h 7.2 km/h 72% 0.0 mm 0 W/m2
04:24 13.6 °C 9.1 °C 997.2 hPa NNW 1.1 km/h 7.2 km/h 74% 0.0 mm 0 W/m2
04:29 13.5 °C 9.2 °C 997.2 hPa NNW 2.6 km/h 8.7 km/h 75% 0.0 mm 0 W/m2
04:34 13.4 °C 9.3 °C 997.5 hPa NW 2.6 km/h 8.7 km/h 76% 0.0 mm 0 W/m2
04:39 13.3 °C 9.2 °C 997.2 hPa NNW 2.6 km/h 7.2 km/h 76% 0.0 mm 0 W/m2
04:44 13.3 °C 9.3 °C 997.5 hPa NNW 5.0 km/h 7.2 km/h 77% 0.0 mm 0 W/m2
04:49 13.2 °C 9.3 °C 997.2 hPa NNW 3.5 km/h 8.7 km/h 77% 0.0 mm 0 W/m2
04:54 13.2 °C 9.4 °C 997.2 hPa NNW 5.0 km/h 9.7 km/h 78% 0.0 mm 0 W/m2
04:59 13.3 °C 9.6 °C 997.2 hPa NNW 5.0 km/h 11.1 km/h 78% 0.0 mm 0 W/m2
05:04 13.4 °C 9.4 °C 997.5 hPa NNW 5.0 km/h 11.1 km/h 77% 0.0 mm 0 W/m2
05:09 13.4 °C 9.4 °C 997.5 hPa NNW 6.1 km/h 11.1 km/h 77% 0.0 mm 0 W/m2
05:14 13.3 °C 9.2 °C 997.5 hPa NW 3.5 km/h 9.7 km/h 76% 0.0 mm 0 W/m2
05:19 13.3 °C 9.2 °C 997.9 hPa NW 5.0 km/h 8.7 km/h 76% 0.0 mm 0 W/m2
05:24 13.3 °C 9.3 °C 997.9 hPa NW 5.0 km/h 8.7 km/h 77% 0.0 mm 0 W/m2
05:29 13.3 °C 9.3 °C 997.9 hPa NNW 3.5 km/h 8.7 km/h 77% 0.0 mm 0 W/m2
05:34 13.3 °C 9.6 °C 997.9 hPa NNW 6.1 km/h 8.7 km/h 78% 0.0 mm 0 W/m2
05:39 13.2 °C 9.4 °C 998.2 hPa North 5.0 km/h 9.7 km/h 78% 0.0 mm 0 W/m2
05:44 13.1 °C 9.3 °C 998.2 hPa North 5.0 km/h 9.7 km/h 78% 0.0 mm 0 W/m2
05:49 13.1 °C 9.3 °C 998.2 hPa North 2.6 km/h 9.7 km/h 78% 0.0 mm 0 W/m2
05:54 13.0 °C 9.3 °C 998.5 hPa North 6.1 km/h 7.2 km/h 78% 0.0 mm 0 W/m2
05:59 13.0 °C 9.3 °C 998.5 hPa NNW 1.1 km/h 8.7 km/h 78% 0.0 mm 0 W/m2
06:04 13.1 °C 9.2 °C 998.5 hPa NW 2.6 km/h 8.7 km/h 77% 0.0 mm 0 W/m2
06:09 13.1 °C 8.9 °C 998.5 hPa WNW 3.5 km/h 7.2 km/h 76% 0.0 mm 2 W/m2
06:14 13.2 °C 8.9 °C 998.9 hPa Calm   8.7 km/h 75% 0.0 mm 5 W/m2
06:19 13.2 °C 8.7 °C 998.9 hPa WNW 1.1 km/h 8.7 km/h 74% 0.0 mm 9 W/m2
06:24 13.2 °C 8.4 °C 998.9 hPa West 1.1 km/h 5.0 km/h 73% 0.0 mm 13 W/m2
06:29 13.2 °C 8.3 °C 999.2 hPa Calm   3.5 km/h 72% 0.0 mm 16 W/m2
06:34 13.2 °C 8.1 °C 999.2 hPa WSW 2.6 km/h 5.0 km/h 71% 0.0 mm 16 W/m2
06:39 13.4 °C 8.1 °C 999.5 hPa WSW 5.0 km/h 6.1 km/h 70% 0.0 mm 14 W/m2
06:44 13.4 °C 7.8 °C 999.5 hPa WSW 7.2 km/h 11.1 km/h 69% 0.0 mm 16 W/m2
06:49 13.4 °C 7.8 °C 999.5 hPa WSW 3.5 km/h 11.1 km/h 69% 0.0 mm 16 W/m2
06:54 13.4 °C 7.8 °C 999.5 hPa WSW 2.6 km/h 11.1 km/h 69% 0.0 mm 18 W/m2
06:59 13.3 °C 8.2 °C 999.5 hPa Calm   5.0 km/h 71% 0.0 mm 19 W/m2
07:04 13.3 °C 8.2 °C 999.9 hPa WNW 2.6 km/h 5.0 km/h 71% 0.0 mm 22 W/m2
07:09 13.3 °C 8.6 °C 999.9 hPa Calm   3.5 km/h 73% 0.0 mm 29 W/m2
07:14 13.4 °C 9.1 °C 999.9 hPa Calm   3.5 km/h 75% 0.0 mm 45 W/m2
07:19 13.7 °C 9.6 °C 1000.2 hPa WNW 1.1 km/h 6.1 km/h 76% 0.0 mm 58 W/m2
07:24 13.9 °C 9.7 °C 1000.2 hPa WNW 5.0 km/h 8.7 km/h 76% 0.0 mm 60 W/m2
07:29 14.1 °C 9.9 °C 1000.2 hPa WNW 3.5 km/h 8.7 km/h 76% 0.0 mm 78 W/m2
07:34 14.2 °C 9.8 °C 1000.2 hPa WNW 6.1 km/h 8.7 km/h 75% 0.0 mm 73 W/m2
07:39 14.3 °C 9.7 °C 1000.6 hPa WNW 5.0 km/h 9.7 km/h 74% 0.0 mm 80 W/m2
07:44 14.5 °C 9.5 °C 1000.6 hPa WNW 5.0 km/h 9.7 km/h 72% 0.0 mm 101 W/m2
07:49 14.6 °C 9.4 °C 1000.6 hPa WNW 6.1 km/h 9.7 km/h 71% 0.0 mm 109 W/m2
07:54 14.8 °C 9.6 °C 1000.6 hPa Calm   12.2 km/h 71% 0.0 mm 111 W/m2
07:59 15.0 °C 9.4 °C 1000.9 hPa WNW 3.5 km/h 12.2 km/h 69% 0.0 mm 115 W/m2
08:04 14.9 °C 9.1 °C 1000.9 hPa WNW 7.2 km/h 13.4 km/h 68% 0.0 mm 92 W/m2
08:09 14.8 °C 8.7 °C 1000.9 hPa West 3.5 km/h 13.4 km/h 67% 0.0 mm 84 W/m2
08:14 14.8 °C 8.7 °C 1000.9 hPa West 5.0 km/h 12.2 km/h 67% 0.0 mm 102 W/m2
08:19 15.1 °C 8.8 °C 1000.9 hPa West 3.5 km/h 9.7 km/h 66% 0.0 mm 274 W/m2
08:24 16.1 °C 9.3 °C 1001.2 hPa WNW 5.0 km/h 7.2 km/h 64% 0.0 mm 263 W/m2
08:29 16.5 °C 8.9 °C 1001.6 hPa West 7.2 km/h 11.1 km/h 61% 0.0 mm 94 W/m2
08:34 15.4 °C 7.4 °C 1001.6 hPa WSW 13.4 km/h 20.9 km/h 59% 0.0 mm 90 W/m2
08:39 14.8 °C 7.8 °C 1001.6 hPa WSW 3.5 km/h 20.9 km/h 63% 0.0 mm 94 W/m2
08:44 14.7 °C 7.9 °C 1001.9 hPa SW 11.1 km/h 17.2 km/h 64% 0.0 mm 97 W/m2
08:49 14.3 °C 8.1 °C 1001.6 hPa WSW 11.1 km/h 19.5 km/h 66% 0.0 mm 101 W/m2
08:54 14.3 °C 8.5 °C 1001.9 hPa WSW 6.1 km/h 19.5 km/h 68% 0.0 mm 128 W/m2
08:59 14.4 °C 8.8 °C 1001.9 hPa WSW 3.5 km/h 12.2 km/h 69% 0.0 mm 75 W/m2
09:04 14.4 °C 9.2 °C 1001.9 hPa WSW 5.0 km/h 17.2 km/h 71% 0.0 mm 51 W/m2
09:09 14.2 °C 9.6 °C 1001.9 hPa WSW 11.1 km/h 17.2 km/h 74% 0.0 mm 64 W/m2
09:14 14.0 °C 9.4 °C 1001.9 hPa WSW 17.2 km/h 24.5 km/h 74% 0.0 mm 102 W/m2
09:19 14.0 °C 9.4 °C 1001.9 hPa WSW 13.4 km/h 25.6 km/h 74% 0.0 mm 122 W/m2
09:24 14.2 °C 9.8 °C 1001.9 hPa WSW 15.8 km/h 30.6 km/h 75% 0.0 mm 160 W/m2
09:29 14.2 °C 10.1 °C 1002.3 hPa WSW 14.8 km/h 30.6 km/h 76% 0.0 mm 128 W/m2
09:34 14.2 °C 10.1 °C 1002.3 hPa WSW 18.3 km/h 31.7 km/h 76% 0.0 mm 125 W/m2
09:39 14.2 °C 10.1 °C 1002.3 hPa WSW 14.8 km/h 31.7 km/h 76% 0.0 mm 198 W/m2
09:44 14.3 °C 10.1 °C 1002.3 hPa WSW 23.3 km/h 34.3 km/h 76% 0.0 mm 168 W/m2
09:49 14.1 °C 10.3 °C 1002.6 hPa SW 15.8 km/h 34.3 km/h 78% 0.0 mm 189 W/m2
09:54 13.9 °C 10.7 °C 1002.6 hPa SW 15.8 km/h 34.3 km/h 81% 0.0 mm 166 W/m2
09:59 14.0 °C 10.8 °C 1002.9 hPa WSW 20.9 km/h 34.3 km/h 81% 0.0 mm 188 W/m2
10:04 13.8 °C 10.4 °C 1002.9 hPa WSW 14.8 km/h 34.3 km/h 80% 0.0 mm 201 W/m2
10:09 13.9 °C 10.7 °C 1002.9 hPa WSW 21.9 km/h 34.3 km/h 81% 0.0 mm 136 W/m2
10:14 13.7 °C 10.7 °C 1003.3 hPa West 17.2 km/h 35.6 km/h 82% 0.0 mm 170 W/m2
10:19 13.6 °C 10.9 °C 1003.3 hPa West 14.8 km/h 35.6 km/h 84% 0.0 mm 273 W/m2
10:24 13.8 °C 11.3 °C 1003.3 hPa WSW 18.3 km/h 31.7 km/h 85% 0.0 mm 165 W/m2
10:29 13.3 °C 10.8 °C 1003.6 hPa SW 19.5 km/h 31.7 km/h 85% 0.0 mm 105 W/m2
10:34 12.7 °C 10.4 °C 1003.9 hPa SW 14.8 km/h 33.1 km/h 86% 0.0 mm 176 W/m2
10:39 12.6 °C 10.8 °C 1003.9 hPa WSW 15.8 km/h 34.3 km/h 89% 0.3 mm 178 W/m2
10:44 12.7 °C 11.3 °C 1003.9 hPa SW 12.2 km/h 34.3 km/h 91% 0.3 mm 156 W/m2
10:49 12.9 °C 11.3 °C 1003.9 hPa SW 18.3 km/h 28.0 km/h 90% 0.3 mm 176 W/m2
10:54 13.1 °C 10.8 °C 1003.9 hPa SW 20.9 km/h 31.7 km/h 86% 0.3 mm 185 W/m2
10:59 13.4 °C 10.9 °C 1003.9 hPa SW 20.9 km/h 31.7 km/h 85% 0.3 mm 202 W/m2
11:04 13.6 °C 10.6 °C 1003.9 hPa WSW 14.8 km/h 29.4 km/h 82% 0.3 mm 268 W/m2
11:09 13.8 °C 10.6 °C 1004.3 hPa WSW 14.8 km/h 30.6 km/h 81% 0.3 mm 279 W/m2
11:14 14.0 °C 10.2 °C 1004.3 hPa WSW 23.3 km/h 30.6 km/h 78% 0.3 mm 234 W/m2
11:19 14.2 °C 10.4 °C 1004.6 hPa West 18.3 km/h 30.6 km/h 78% 0.3 mm 309 W/m2
11:24 14.4 °C 10.2 °C 1004.6 hPa WSW 13.4 km/h 29.4 km/h 76% 0.3 mm 317 W/m2
11:29 14.8 °C 10.6 °C 1004.6 hPa SW 14.8 km/h 30.6 km/h 76% 0.3 mm 342 W/m2
11:34 14.9 °C 10.5 °C 1004.6 hPa SW 29.4 km/h 34.3 km/h 75% 0.3 mm 408 W/m2
11:52 15.9 °C 10.0 °C 1005.0 hPa SW 20.9 km/h 34.3 km/h 68% 0.0 mm 816 W/m2
11:57 16.1 °C 10.2 °C 1005.3 hPa SW 17.2 km/h 34.3 km/h 68% 0.0 mm 529 W/m2
12:02 16.0 °C 9.4 °C 1005.6 hPa SW 19.5 km/h 37.8 km/h 65% 0.0 mm 985 W/m2
12:07 16.0 °C 9.7 °C 1005.3 hPa SW 20.9 km/h 37.8 km/h 66% 0.0 mm 940 W/m2
12:12 16.5 °C 9.9 °C 1005.6 hPa SW 24.5 km/h 35.6 km/h 65% 0.0 mm 940 W/m2
12:17 16.5 °C 9.7 °C 1005.6 hPa WSW 21.9 km/h 36.7 km/h 64% 0.0 mm 967 W/m2
12:22 16.6 °C 9.8 °C 1005.6 hPa WSW 21.9 km/h 36.7 km/h 64% 0.0 mm 999 W/m2
12:27 16.9 °C 9.8 °C 1005.6 hPa WSW 23.3 km/h 35.6 km/h 63% 0.0 mm 1044 W/m2
12:32 16.7 °C 9.4 °C 1005.6 hPa SW 18.3 km/h 37.8 km/h 62% 0.0 mm 1064 W/m2
12:37 17.2 °C 9.6 °C 1006.0 hPa SSW 21.9 km/h 37.8 km/h 61% 0.0 mm 1167 W/m2
12:42 17.3 °C 9.9 °C 1005.6 hPa SW 18.3 km/h 39.3 km/h 62% 0.0 mm 1147 W/m2
12:47 17.5 °C 9.7 °C 1006.0 hPa SW 19.5 km/h 39.3 km/h 60% 0.0 mm 355 W/m2
12:52 17.1 °C 9.1 °C 1006.0 hPa SW 17.2 km/h 36.7 km/h 59% 0.0 mm 698 W/m2
12:57 16.7 °C 9.4 °C 1006.3 hPa WSW 17.2 km/h 36.7 km/h 62% 0.0 mm 585 W/m2
13:02 16.7 °C 9.6 °C 1006.0 hPa SW 18.3 km/h 30.6 km/h 63% 0.0 mm 351 W/m2
13:07 16.2 °C 8.9 °C 1006.0 hPa SW 13.4 km/h 30.6 km/h 62% 0.0 mm 493 W/m2
13:12 16.5 °C 9.2 °C 1006.3 hPa SW 17.2 km/h 30.6 km/h 62% 0.0 mm 299 W/m2
13:17 16.2 °C 8.9 °C 1006.3 hPa SW 18.3 km/h 30.6 km/h 62% 0.0 mm 541 W/m2
13:22 16.8 °C 9.2 °C 1006.7 hPa SW 21.9 km/h 30.6 km/h 61% 0.0 mm 319 W/m2
13:27 16.4 °C 8.9 °C 1006.7 hPa SW 19.5 km/h 33.1 km/h 61% 0.0 mm 191 W/m2
13:32 15.6 °C 7.9 °C 1006.7 hPa SSW 25.6 km/h 34.3 km/h 60% 0.0 mm 143 W/m2
13:37 15.5 °C 8.5 °C 1006.7 hPa SSW 17.2 km/h 34.3 km/h 63% 0.0 mm 157 W/m2
13:42 15.5 °C 8.5 °C 1006.7 hPa SW 17.2 km/h 30.6 km/h 63% 0.0 mm 195 W/m2
13:47 15.6 °C 8.8 °C 1006.7 hPa SSW 15.8 km/h 30.6 km/h 64% 0.0 mm 179 W/m2
13:52 15.5 °C 8.7 °C 1007.0 hPa SSW 18.3 km/h 28.0 km/h 64% 0.0 mm 209 W/m2
13:57 15.6 °C 8.6 °C 1007.0 hPa SSW 14.8 km/h 30.6 km/h 63% 0.0 mm 341 W/m2
14:02 16.1 °C 9.1 °C 1006.7 hPa SSW 19.5 km/h 30.6 km/h 63% 0.0 mm 506 W/m2
14:07 16.4 °C 8.9 °C 1007.0 hPa SSW 17.2 km/h 29.4 km/h 61% 0.0 mm 525 W/m2
14:12 16.7 °C 8.7 °C 1007.0 hPa SSW 14.8 km/h 29.4 km/h 59% 0.0 mm 601 W/m2
14:17 17.3 °C 9.2 °C 1007.3 hPa SSW 18.3 km/h 30.6 km/h 59% 0.0 mm 510 W/m2
14:22 17.2 °C 8.6 °C 1007.3 hPa SSW 14.8 km/h 30.6 km/h 57% 0.0 mm 325 W/m2
14:27 16.5 °C 8.9 °C 1007.7 hPa SW 19.5 km/h 27.0 km/h 61% 0.0 mm 340 W/m2
14:32 16.5 °C 8.7 °C 1007.7 hPa SW 14.8 km/h 27.0 km/h 60% 0.0 mm 407 W/m2
14:37 16.5 °C 8.4 °C 1007.7 hPa SSW 9.7 km/h 27.0 km/h 59% 0.0 mm 474 W/m2
14:42 16.7 °C 9.4 °C 1007.7 hPa SSW 20.9 km/h 27.0 km/h 62% 0.0 mm 314 W/m2
14:47 16.4 °C 9.3 °C 1007.7 hPa SW 12.2 km/h 27.0 km/h 63% 0.0 mm 276 W/m2
14:52 16.3 °C 9.3 °C 1008.0 hPa SW 17.2 km/h 27.0 km/h 63% 0.0 mm 453 W/m2
14:57 16.9 °C 9.8 °C 1008.0 hPa SSW 8.7 km/h 23.3 km/h 63% 0.0 mm 506 W/m2
15:02 16.9 °C 9.8 °C 1008.0 hPa SSW 19.5 km/h 27.0 km/h 63% 0.0 mm 825 W/m2
15:07 17.4 °C 9.8 °C 1008.0 hPa SSW 15.8 km/h 28.0 km/h 61% 0.0 mm 832 W/m2
15:12 17.7 °C 9.3 °C 1008.0 hPa SSW 17.2 km/h 31.7 km/h 58% 0.0 mm 785 W/m2
15:17 17.5 °C 9.9 °C 1008.4 hPa South 13.4 km/h 31.7 km/h 61% 0.0 mm 807 W/m2
15:22 17.6 °C 9.0 °C 1008.4 hPa SSW 15.8 km/h 25.6 km/h 57% 0.0 mm 448 W/m2
15:27 17.4 °C 9.3 °C 1008.4 hPa SSW 11.1 km/h 27.0 km/h 59% 0.0 mm 271 W/m2
15:32 17.8 °C 9.7 °C 1008.4 hPa SSW 14.8 km/h 27.0 km/h 59% 0.0 mm 709 W/m2
15:37 17.9 °C 9.6 °C 1008.4 hPa SSW 12.2 km/h 25.6 km/h 58% 0.0 mm 546 W/m2
15:42 17.9 °C 9.3 °C 1008.4 hPa SSW 12.2 km/h 28.0 km/h 57% 0.0 mm 428 W/m2
15:47 17.7 °C 9.1 °C 1008.4 hPa SSW 19.5 km/h 28.0 km/h 57% 0.0 mm 356 W/m2
15:52 17.5 °C 9.2 °C 1008.7 hPa SSW 15.8 km/h 27.0 km/h 58% 0.0 mm 289 W/m2
16:12 17.1 °C 9.1 °C 1008.7 hPa SSW 18.3 km/h 27.0 km/h 59% 0.0 mm 265 W/m2
16:17 16.7 °C 8.4 °C 1009.0 hPa SSW 15.8 km/h 28.0 km/h 58% 0.0 mm 264 W/m2
16:22 16.7 °C 8.4 °C 1009.0 hPa SSW 17.2 km/h 28.0 km/h 58% 0.0 mm 271 W/m2
16:27 16.9 °C 8.6 °C 1009.0 hPa SSW 17.2 km/h 24.5 km/h 58% 0.0 mm 344 W/m2
16:32 16.9 °C 8.6 °C 1009.0 hPa SSW 12.2 km/h 25.6 km/h 58% 0.0 mm 375 W/m2
16:37 17.2 °C 8.1 °C 1009.0 hPa South 12.2 km/h 25.6 km/h 55% 0.0 mm 424 W/m2
16:42 17.5 °C 8.4 °C 1009.0 hPa South 17.2 km/h 25.6 km/h 55% 0.0 mm 456 W/m2
16:47 17.9 °C 8.4 °C 1009.0 hPa South 15.8 km/h 28.0 km/h 54% 0.0 mm 605 W/m2
16:52 17.9 °C 8.2 °C 1008.7 hPa SSW 19.5 km/h 28.0 km/h 53% 0.0 mm 579 W/m2
16:57 18.2 °C 8.7 °C 1008.7 hPa SSW 8.7 km/h 28.0 km/h 54% 0.0 mm 552 W/m2
17:02 18.7 °C 8.4 °C 1008.7 hPa South 15.8 km/h 24.5 km/h 51% 0.0 mm 543 W/m2
17:07 18.4 °C 8.7 °C 1009.0 hPa South 15.8 km/h 24.5 km/h 53% 0.0 mm 543 W/m2
17:12 18.3 °C 8.0 °C 1009.0 hPa South 17.2 km/h 24.5 km/h 51% 0.0 mm 544 W/m2
17:17 18.3 °C 8.6 °C 1009.4 hPa South 20.9 km/h 25.6 km/h 53% 0.0 mm 579 W/m2
17:22 18.3 °C 8.0 °C 1009.4 hPa South 15.8 km/h 25.6 km/h 51% 0.0 mm 458 W/m2
17:27 18.1 °C 8.7 °C 1009.4 hPa South 11.1 km/h 25.6 km/h 54% 0.0 mm 458 W/m2
17:32 17.8 °C 8.4 °C 1009.4 hPa South 13.4 km/h 24.5 km/h 54% 0.0 mm 259 W/m2
17:37 17.7 °C 8.0 °C 1009.4 hPa South 8.7 km/h 24.5 km/h 53% 0.0 mm 230 W/m2
17:54 17.1 °C 8.3 °C 1009.4 hPa South 11.1 km/h 18.3 km/h 56% 0.0 mm 159 W/m2
17:59 16.7 °C 8.4 °C 1009.4 hPa South 15.8 km/h 21.9 km/h 58% 0.0 mm 127 W/m2
18:04 16.5 °C 7.9 °C 1009.7 hPa SSW 11.1 km/h 21.9 km/h 57% 0.0 mm 135 W/m2
18:09 16.5 °C 7.9 °C 1009.7 hPa SSW 8.7 km/h 19.5 km/h 57% 0.0 mm 148 W/m2
18:15 16.4 °C 7.9 °C 1009.7 hPa SSW 11.1 km/h 20.9 km/h 57% 0.0 mm 122 W/m2
18:20 16.4 °C 7.3 °C 1009.7 hPa South 11.1 km/h 20.9 km/h 55% 0.0 mm 138 W/m2
18:25 16.5 °C 7.4 °C 1010.0 hPa South 9.7 km/h 18.3 km/h 55% 0.0 mm 195 W/m2
18:30 17.2 °C 7.3 °C 1009.7 hPa South 8.7 km/h 18.3 km/h 52% 0.0 mm 217 W/m2
18:35 17.4 °C 7.4 °C 1009.7 hPa South 8.7 km/h 17.2 km/h 52% 0.0 mm 140 W/m2
18:40 17.2 °C 6.7 °C 1009.7 hPa SSW 11.1 km/h 18.3 km/h 50% 0.0 mm 230 W/m2
18:45 17.5 °C 7.3 °C 1009.7 hPa South 6.1 km/h 18.3 km/h 51% 0.0 mm 118 W/m2
18:50 17.2 °C 6.7 °C 1009.7 hPa South 12.2 km/h 20.9 km/h 50% 0.0 mm 236 W/m2
18:55 17.5 °C 6.7 °C 1010.0 hPa South 9.7 km/h 20.9 km/h 49% 0.0 mm 107 W/m2
19:00 17.0 °C 7.3 °C 1009.7 hPa South 7.2 km/h 18.3 km/h 53% 0.0 mm 129 W/m2
19:05 16.8 °C 6.9 °C 1010.0 hPa South 5.0 km/h 18.3 km/h 52% 0.0 mm 97 W/m2
19:10 16.6 °C 7.3 °C 1010.0 hPa South 6.1 km/h 17.2 km/h 54% 0.0 mm 93 W/m2
19:15 16.7 °C 7.6 °C 1010.0 hPa South 11.1 km/h 17.2 km/h 55% 0.0 mm 88 W/m2
19:20 16.6 °C 7.6 °C 1010.4 hPa South 6.1 km/h 13.4 km/h 55% 0.0 mm 107 W/m2
19:25 17.2 °C 7.6 °C 1010.4 hPa South 6.1 km/h 13.4 km/h 53% 0.0 mm 136 W/m2
19:30 17.3 °C 7.3 °C 1010.4 hPa South 6.1 km/h 12.2 km/h 52% 0.0 mm 60 W/m2
19:36 16.8 °C 7.4 °C 1010.7 hPa South 5.0 km/h 11.1 km/h 54% 0.0 mm 56 W/m2
19:41 16.6 °C 7.0 °C 1010.7 hPa South 2.6 km/h 11.1 km/h 53% 0.0 mm 68 W/m2
19:46 16.8 °C 7.4 °C 1010.7 hPa South 5.0 km/h 9.7 km/h 54% 0.0 mm 87 W/m2
19:51 17.4 °C 7.2 °C 1010.7 hPa SSW 2.6 km/h 9.7 km/h 51% 0.0 mm 54 W/m2
19:56 17.3 °C 7.3 °C 1010.7 hPa South 1.1 km/h 6.1 km/h 52% 0.0 mm 62 W/m2
20:01 17.0 °C 7.3 °C 1010.7 hPa South 7.2 km/h 9.7 km/h 53% 0.0 mm 46 W/m2
20:06 16.4 °C 7.6 °C 1011.1 hPa SSW 5.0 km/h 9.7 km/h 56% 0.0 mm 25 W/m2
20:11 16.0 °C 6.9 °C 1011.1 hPa South 3.5 km/h 9.7 km/h 55% 0.0 mm 23 W/m2
20:16 15.8 °C 7.1 °C 1011.1 hPa SSE 2.6 km/h 9.7 km/h 56% 0.0 mm 16 W/m2
20:21 15.7 °C 6.9 °C 1011.1 hPa SSE 3.5 km/h 9.7 km/h 56% 0.0 mm 13 W/m2
20:26 15.5 °C 6.5 °C 1011.1 hPa South 3.5 km/h 9.7 km/h 55% 0.0 mm 8 W/m2
20:31 15.3 °C 6.6 °C 1011.1 hPa South 3.5 km/h 9.7 km/h 56% 0.0 mm 5 W/m2
20:36 15.1 °C 6.7 °C 1011.1 hPa SSE 2.6 km/h 8.7 km/h 57% 0.0 mm 2 W/m2
20:41 15.0 °C 6.6 °C 1011.1 hPa SSE 2.6 km/h 6.1 km/h 57% 0.0 mm 0 W/m2
20:46 14.9 °C 6.7 °C 1011.1 hPa SSE 1.1 km/h 6.1 km/h 58% 0.0 mm 0 W/m2
20:51 14.7 °C 6.8 °C 1011.4 hPa Calm   3.5 km/h 59% 0.0 mm 0 W/m2
20:57 14.4 °C 6.7 °C 1011.4 hPa South 1.1 km/h 3.5 km/h 60% 0.0 mm 0 W/m2
21:02 14.1 °C 6.7 °C 1011.4 hPa SSE 2.6 km/h 3.5 km/h 61% 0.0 mm 0 W/m2
21:07 14.0 °C 7.1 °C 1011.7 hPa Calm   3.5 km/h 63% 0.0 mm 0 W/m2
21:12 13.8 °C 7.1 °C 1011.7 hPa Calm   3.5 km/h 64% 0.0 mm 0 W/m2
21:17 13.5 °C 7.1 °C 1011.7 hPa Calm   1.1 km/h 65% 0.0 mm 0 W/m2
21:22 13.4 °C 7.2 °C 1011.7 hPa NW 1.1 km/h 2.6 km/h 66% 0.0 mm 0 W/m2
21:27 13.2 °C 7.2 °C 1011.7 hPa NNW 2.6 km/h 3.5 km/h 67% 0.0 mm 0 W/m2
21:32 12.8 °C 7.3 °C 1011.7 hPa Calm   3.5 km/h 69% 0.0 mm 0 W/m2
21:37 12.6 °C 7.5 °C 1011.7 hPa NNW 3.5 km/h 6.1 km/h 71% 0.0 mm 0 W/m2
21:42 12.4 °C 7.5 °C 1012.1 hPa NNW 2.6 km/h 6.1 km/h 72% 0.0 mm 0 W/m2
21:48 12.3 °C 7.8 °C 1012.1 hPa NW 5.0 km/h 7.2 km/h 74% 0.0 mm 0 W/m2
21:53 12.3 °C 8.0 °C 1012.1 hPa NW 3.5 km/h 7.2 km/h 75% 0.0 mm 0 W/m2
21:58 12.1 °C 7.8 °C 1012.8 hPa NW 1.1 km/h 7.2 km/h 75% 0.0 mm 0 W/m2
22:03 11.9 °C 8.0 °C 1012.8 hPa NNW 2.6 km/h 5.0 km/h 77% 0.0 mm 0 W/m2
22:08 12.3 °C 8.4 °C 1012.8 hPa NNW 3.5 km/h 6.1 km/h 77% 0.0 mm 0 W/m2
22:13 11.7 °C 8.4 °C 1012.8 hPa Calm   6.1 km/h 80% 0.0 mm 0 W/m2
22:18 11.6 °C 8.4 °C 1013.1 hPa North 2.6 km/h 6.1 km/h 81% 0.0 mm 0 W/m2
22:23 11.6 °C 8.6 °C 1012.8 hPa North 2.6 km/h 3.5 km/h 82% 0.0 mm 0 W/m2
22:28 11.6 °C 8.6 °C 1013.1 hPa Calm   3.5 km/h 82% 0.0 mm 0 W/m2
22:33 11.7 °C 8.7 °C 1013.1 hPa NNW 2.6 km/h 5.0 km/h 82% 0.0 mm 0 W/m2
22:38 11.7 °C 8.7 °C 1013.1 hPa Calm   5.0 km/h 82% 0.0 mm 0 W/m2
22:43 11.7 °C 8.7 °C 1013.1 hPa Calm   5.0 km/h 82% 0.0 mm 0 W/m2
22:48 11.6 °C 8.6 °C 1013.1 hPa North 2.6 km/h 3.5 km/h 82% 0.0 mm 0 W/m2
22:53 11.6 °C 8.6 °C 1013.1 hPa North 3.5 km/h 6.1 km/h 82% 0.0 mm 0 W/m2
22:58 11.6 °C 8.6 °C 1013.4 hPa NNW 3.5 km/h 6.1 km/h 82% 0.0 mm 0 W/m2
23:03 11.5 °C 8.3 °C 1013.1 hPa NW 2.6 km/h 6.1 km/h 81% 0.0 mm 0 W/m2
23:08 11.4 °C 8.3 °C 1013.1 hPa NW 5.0 km/h 7.2 km/h 81% 0.0 mm 0 W/m2
23:13 11.3 °C 8.2 °C 1013.4 hPa NNW 3.5 km/h 7.2 km/h 81% 0.0 mm 0 W/m2
23:18 11.2 °C 8.1 °C 1013.4 hPa NW 3.5 km/h 7.2 km/h 81% 0.0 mm 0 W/m2
23:23 11.0 °C 7.9 °C 1013.4 hPa NW 3.5 km/h 7.2 km/h 81% 0.0 mm 0 W/m2
23:28 10.9 °C 8.1 °C 1013.4 hPa NW 5.0 km/h 7.2 km/h 83% 0.0 mm 0 W/m2
23:33 10.8 °C 8.1 °C 1013.4 hPa NW 2.6 km/h 8.7 km/h 83% 0.0 mm 0 W/m2
23:38 10.7 °C 8.1 °C 1013.4 hPa NNW 6.1 km/h 9.7 km/h 84% 0.0 mm 0 W/m2
23:43 10.6 °C 8.0 °C 1013.4 hPa NNW 5.0 km/h 9.7 km/h 84% 0.0 mm 0 W/m2
23:48 10.5 °C 7.9 °C 1013.4 hPa NNW 6.1 km/h 8.7 km/h 84% 0.0 mm 0 W/m2
23:53 10.4 °C 8.0 °C 1013.4 hPa NNW 6.1 km/h 8.7 km/h 85% 0.0 mm 0 W/m2
23:58 10.3 °C 7.9 °C 1013.8 hPa NW 3.5 km/h 8.7 km/h 85% 0.0 mm 0 W/m2
Northern Hawkes Bay. New Zealand Historic Data
Compliments of Weather Underground - 2 mb